﻿_id,日時,平均風速(m/s),平均風向,最大瞬間風速(m/s),最大風速時風向,気温(℃),湿度(%),10分間移動積算雨量(mm),1時間移動積算雨量(mm),日雨量(mm),累計雨量(mm),日射(日積算)(MJ/m2),日照(日積算)(min),現地気圧(hPa),海面気圧(hPa)
1,2020-08-24T00:00:00,1,北西,1.4,西北西,26.9,81.3,0,0,0,0,16.75,450,994.8,1008
2,2020-08-24T00:01:00,1,北西,1.4,西北西,26.9,80.4,0,0,0,0,0,0,994.8,1008
3,2020-08-24T00:02:00,1,北北西,1.5,北北東,27,79.8,0,0,0,0,0,0,994.8,1008
4,2020-08-24T00:03:00,1,北北西,1.5,北北東,26.8,79.2,0,0,0,0,0,0,994.8,1008
5,2020-08-24T00:04:00,0.9,北北西,1.5,北北東,26.8,79.2,0,0,0,0,0,0,994.8,1008
6,2020-08-24T00:05:00,0.8,北,1.5,北北東,26.6,79,0,0,0,0,0,0,994.8,1008
7,2020-08-24T00:06:00,0.8,北,1.5,北北東,26.5,79.6,0,0,0,0,0,0,994.8,1008
8,2020-08-24T00:07:00,0.7,北,1.5,北北東,26.6,80.1,0,0,0,0,0,0,994.8,1008
9,2020-08-24T00:08:00,0.7,北,1.5,北北東,26.6,80.4,0,0,0,0,0,0,994.8,1008
10,2020-08-24T00:09:00,0.7,北,1.5,北北東,26.6,80.1,0,0,0,0,0,0,994.8,1008
11,2020-08-24T00:10:00,0.7,北,1.5,北北東,26.5,80.1,0,0,0,0,0,0,994.8,1008
12,2020-08-24T00:11:00,0.7,北,1.8,北北東,26.6,80.7,0,0,0,0,0,0,994.8,1008
13,2020-08-24T00:12:00,0.6,北北西,1.8,北北東,26.5,80.8,0,0,0,0,0,0,994.8,1008
14,2020-08-24T00:13:00,0.5,北北西,1.8,北北東,26.7,81.1,0,0,0,0,0,0,994.8,1008
15,2020-08-24T00:14:00,0.6,北北西,1.8,北北東,26.7,80.5,0,0,0,0,0,0,994.8,1008
16,2020-08-24T00:15:00,0.7,北北西,1.8,北北東,26.5,80.1,0,0,0,0,0,0,994.8,1008
17,2020-08-24T00:16:00,0.7,北北西,1.8,北北東,26.3,80.6,0,0,0,0,0,0,994.8,1008
18,2020-08-24T00:17:00,0.8,北北西,1.8,北北東,26.1,81.4,0,0,0,0,0,0,994.8,1008
19,2020-08-24T00:18:00,0.8,北北西,1.8,北北東,26.1,82.2,0,0,0,0,0,0,994.8,1008
20,2020-08-24T00:19:00,0.9,北北西,1.8,北北東,26.2,82.6,0,0,0,0,0,0,994.7,1007.9
21,2020-08-24T00:20:00,0.9,北北西,1.8,北北東,26.3,82.6,0,0,0,0,0,0,994.7,1007.9
22,2020-08-24T00:21:00,0.9,北西,1.8,北西,26.2,82.3,0,0,0,0,0,0,994.8,1008
23,2020-08-24T00:22:00,0.9,北西,1.8,北西,26.3,82.3,0,0,0,0,0,0,994.7,1007.9
24,2020-08-24T00:23:00,1,北西,1.8,北西,26.4,82.1,0,0,0,0,0,0,994.7,1007.9
25,2020-08-24T00:24:00,1,北西,1.8,北西,26.4,82,0,0,0,0,0,0,994.7,1007.9
26,2020-08-24T00:25:00,1,北西,1.6,北西,26.3,82,0,0,0,0,0,0,994.7,1007.9
27,2020-08-24T00:26:00,1,北西,1.6,北西,26.3,82.3,0,0,0,0,0,0,994.7,1007.9
28,2020-08-24T00:27:00,1,北西,1.6,北西,26.2,82.7,0,0,0,0,0,0,994.7,1007.9
29,2020-08-24T00:28:00,1,北西,1.7,西北西,26.3,83.5,0,0,0,0,0,0,994.8,1008
30,2020-08-24T00:29:00,1,西北西,1.7,西北西,26.3,83.7,0,0,0,0,0,0,994.7,1007.9
31,2020-08-24T00:30:00,1.1,西北西,1.7,西北西,26.3,83.5,0,0,0,0,0,0,994.7,1007.9
32,2020-08-24T00:31:00,1.2,西北西,1.9,西北西,26,83.2,0,0,0,0,0,0,994.7,1007.9
33,2020-08-24T00:32:00,1.2,西北西,1.9,西北西,25.9,83.9,0,0,0,0,0,0,994.7,1007.9
34,2020-08-24T00:33:00,1.2,西北西,1.9,西北西,25.8,84.5,0,0,0,0,0,0,994.7,1007.9
35,2020-08-24T00:34:00,1.2,西北西,1.9,西北西,26,84.9,0,0,0,0,0,0,994.7,1007.9
36,2020-08-24T00:35:00,1.2,西北西,1.9,西北西,26.1,84.8,0,0,0,0,0,0,994.7,1007.9
37,2020-08-24T00:36:00,1.2,西北西,1.9,西北西,26.3,84.5,0,0,0,0,0,0,994.7,1007.9
38,2020-08-24T00:37:00,1.2,西北西,1.9,西北西,25.8,83.5,0,0,0,0,0,0,994.7,1007.9
39,2020-08-24T00:38:00,1.2,西北西,1.9,西北西,26,85,0,0,0,0,0,0,994.7,1007.9
40,2020-08-24T00:39:00,1.2,西北西,1.9,西北西,26,85.2,0,0,0,0,0,0,994.7,1007.9
41,2020-08-24T00:40:00,1.3,西北西,1.9,西北西,26,84.9,0,0,0,0,0,0,994.7,1007.9
42,2020-08-24T00:41:00,1.2,西北西,1.8,西北西,25.9,84.8,0,0,0,0,0,0,994.7,1007.9
43,2020-08-24T00:42:00,1.2,西北西,1.8,西北西,26.1,85.3,0,0,0,0,0,0,994.7,1007.9
44,2020-08-24T00:43:00,1.2,西北西,1.8,西北西,26.1,84.9,0,0,0,0,0,0,994.7,1007.9
45,2020-08-24T00:44:00,1.2,西北西,1.8,西北西,26.3,84.6,0,0,0,0,0,0,994.7,1007.9
46,2020-08-24T00:45:00,1.3,西北西,1.8,西北西,26.3,84.2,0,0,0,0,0,0,994.7,1007.9
47,2020-08-24T00:46:00,1.3,西北西,1.8,西北西,26,83.8,0,0,0,0,0,0,994.7,1007.9
48,2020-08-24T00:47:00,1.4,西北西,2.1,西北西,25.9,84.3,0,0,0,0,0,0,994.7,1007.9
49,2020-08-24T00:48:00,1.4,西北西,2.1,西北西,25.6,84.9,0,0,0,0,0,0,994.7,1008
50,2020-08-24T00:49:00,1.4,西北西,2.1,西北西,25.6,86,0,0,0,0,0,0,994.7,1008
51,2020-08-24T00:50:00,1.4,西北西,2.1,西北西,25.8,86.5,0,0,0,0,0,0,994.7,1007.9
52,2020-08-24T00:51:00,1.3,西北西,2.1,西北西,26,86.4,0,0,0,0,0,0,994.7,1007.9
53,2020-08-24T00:52:00,1.3,西北西,2.1,西北西,26.1,85.5,0,0,0,0,0,0,994.7,1007.9
54,2020-08-24T00:53:00,1.2,西北西,2.1,西北西,26,85,0,0,0,0,0,0,994.7,1007.9
55,2020-08-24T00:54:00,1.1,西北西,2.1,西北西,25.9,84.7,0,0,0,0,0,0,994.7,1007.9
56,2020-08-24T00:55:00,0.9,西北西,2.1,西北西,26,85,0,0,0,0,0,0,994.7,1007.9
57,2020-08-24T00:56:00,0.8,西北西,2.1,西北西,26.1,85,0,0,0,0,0,0,994.7,1007.9
58,2020-08-24T00:57:00,0.6,北西,2,西北西,26.1,84.5,0,0,0,0,0,0,994.7,1007.9
59,2020-08-24T00:58:00,0.5,北西,1.8,西北西,26.1,84.3,0,0,0,0,0,0,994.7,1007.9
60,2020-08-24T00:59:00,0.5,北西,1.6,北東,26.2,84.1,0,0,0,0,0,0,994.7,1007.9
61,2020-08-24T01:00:00,0.5,北北西,1.6,北東,26.2,83.8,0,0,0,0,0,0,994.7,1007.9
62,2020-08-24T01:01:00,0.5,北,1.6,北東,26.2,83.6,0,0,0,0,0,0,994.7,1007.9
63,2020-08-24T01:02:00,0.5,北,1.6,北東,26.4,83.5,0,0,0,0,0,0,994.6,1007.8
64,2020-08-24T01:03:00,0.6,北,1.6,北東,26.2,82.8,0,0,0,0,0,0,994.7,1007.9
65,2020-08-24T01:04:00,0.6,北北東,1.6,北東,26.3,83,0,0,0,0,0,0,994.7,1007.9
66,2020-08-24T01:05:00,0.6,北北東,1.6,北東,26.1,82.9,0,0,0,0,0,0,994.7,1007.9
67,2020-08-24T01:06:00,0.6,北東,1.6,北東,26.2,83.2,0,0,0,0,0,0,994.7,1007.9
68,2020-08-24T01:07:00,0.6,北東,1.6,北東,26.1,83.4,0,0,0,0,0,0,994.7,1007.9
69,2020-08-24T01:08:00,0.6,北東,1.6,北東,26.2,83.4,0,0,0,0,0,0,994.7,1007.9
70,2020-08-24T01:09:00,0.6,北東,1.5,東北東,26.1,83.3,0,0,0,0,0,0,994.7,1007.9
71,2020-08-24T01:10:00,0.5,北東,1.5,東北東,26.2,83.7,0,0,0,0,0,0,994.7,1007.9
72,2020-08-24T01:11:00,0.6,北東,1.5,東北東,26.2,83.6,0,0,0,0,0,0,994.7,1007.9
73,2020-08-24T01:12:00,0.6,北東,1.5,東北東,26,83.5,0,0,0,0,0,0,994.7,1007.9
74,2020-08-24T01:13:00,0.5,北東,1.5,東北東,26.2,84,0,0,0,0,0,0,994.7,1007.9
75,2020-08-24T01:14:00,0.6,北東,1.5,東北東,26.2,83.7,0,0,0,0,0,0,994.7,1007.9
76,2020-08-24T01:15:00,0.6,北東,1.5,東北東,26.4,83.5,0,0,0,0,0,0,994.7,1007.9
77,2020-08-24T01:16:00,0.6,北東,1.5,東北東,26.1,82.9,0,0,0,0,0,0,994.7,1007.9
78,2020-08-24T01:17:00,0.6,北東,1.5,東北東,26.1,83.2,0,0,0,0,0,0,994.7,1007.9
79,2020-08-24T01:18:00,0.6,北東,1.5,東北東,26,83.4,0,0,0,0,0,0,994.7,1007.9
80,2020-08-24T01:19:00,0.6,北東,1.5,東北東,26.1,84,0,0,0,0,0,0,994.7,1007.9
81,2020-08-24T01:20:00,0.6,北東,1.4,東北東,26.2,83.9,0,0,0,0,0,0,994.6,1007.8
82,2020-08-24T01:21:00,0.5,北東,1.4,東北東,26.1,83.9,0,0,0,0,0,0,994.6,1007.8
83,2020-08-24T01:22:00,0.5,北東,1.1,北,25.9,84.1,0,0,0,0,0,0,994.6,1007.8
84,2020-08-24T01:23:00,0.5,北北東,1.1,北,26,84.6,0,0,0,0,0,0,994.6,1007.8
85,2020-08-24T01:24:00,0.4,北北東,1.1,北,26.2,84.5,0,0,0,0,0,0,994.6,1007.8
86,2020-08-24T01:25:00,0.4,北北東,1.1,北,26,84,0,0,0,0,0,0,994.6,1007.8
87,2020-08-24T01:26:00,0.4,北北東,1.1,北,25.8,84,0,0,0,0,0,0,994.6,1007.8
88,2020-08-24T01:27:00,0.4,北北東,1.1,北,25.8,84.6,0,0,0,0,0,0,994.6,1007.8
89,2020-08-24T01:28:00,0.4,北東,0.9,北北東,25.9,85.1,0,0,0,0,0,0,994.6,1007.8
90,2020-08-24T01:29:00,0.3,北東,0.9,北北東,25.9,85.1,0,0,0,0,0,0,994.6,1007.8
91,2020-08-24T01:30:00,0.3,北東,0.8,東,25.8,84.8,0,0,0,0,0,0,994.6,1007.8
92,2020-08-24T01:31:00,0.3,北東,0.9,北,25.8,84.9,0,0,0,0,0,0,994.6,1007.8
93,2020-08-24T01:32:00,0.4,北東,1,北北東,25.9,85.4,0,0,0,0,0,0,994.6,1007.8
94,2020-08-24T01:33:00,0.4,北東,1,北北東,26,85.4,0,0,0,0,0,0,994.6,1007.8
95,2020-08-24T01:34:00,0.4,北北東,1.1,北,26.2,85,0,0,0,0,0,0,994.6,1007.8
96,2020-08-24T01:35:00,0.5,北北東,1.4,北北東,26.3,84.5,0,0,0,0,0,0,994.6,1007.8
97,2020-08-24T01:36:00,0.6,北北東,1.4,北北東,26.3,84.1,0,0,0,0,0,0,994.6,1007.8
98,2020-08-24T01:37:00,0.6,北北東,1.4,北北東,26.3,83.8,0,0,0,0,0,0,994.6,1007.8
99,2020-08-24T01:38:00,0.6,北北東,1.4,北北東,26.2,83.3,0,0,0,0,0,0,994.6,1007.8
100,2020-08-24T01:39:00,0.6,北,1.4,北北東,26.2,83.4,0,0,0,0,0,0,994.6,1007.8
101,2020-08-24T01:40:00,0.7,北,1.4,北北東,26.1,83.5,0,0,0,0,0,0,994.6,1007.8
102,2020-08-24T01:41:00,0.7,北北西,1.4,北北東,26.1,83.8,0,0,0,0,0,0,994.6,1007.8
103,2020-08-24T01:42:00,0.7,北北西,1.4,北北東,26.2,84,0,0,0,0,0,0,994.6,1007.8
104,2020-08-24T01:43:00,0.7,北西,1.4,北北東,26.1,83.7,0,0,0,0,0,0,994.5,1007.7
105,2020-08-24T01:44:00,0.7,北西,1.4,北北東,26,83.7,0,0,0,0,0,0,994.5,1007.7
106,2020-08-24T01:45:00,0.7,北西,1.3,北,25.9,84.1,0,0,0,0,0,0,994.6,1007.8
107,2020-08-24T01:46:00,0.7,西北西,1.2,西北西,25.8,84.4,0,0,0,0,0,0,994.6,1007.8
108,2020-08-24T01:47:00,0.8,西北西,1.3,西,25.8,84.7,0,0,0,0,0,0,994.6,1007.8
109,2020-08-24T01:48:00,0.8,西北西,1.3,西,25.6,84.9,0,0,0,0,0,0,994.6,1007.9
110,2020-08-24T01:49:00,0.8,西北西,1.3,西,25.1,84.8,0,0,0,0,0,0,994.6,1007.9
111,2020-08-24T01:50:00,0.9,西,1.4,西,25.2,86.8,0,0,0,0,0,0,994.6,1007.9
112,2020-08-24T01:51:00,0.9,西,1.5,西北西,25.5,88.2,0,0,0,0,0,0,994.7,1008
113,2020-08-24T01:52:00,1,西,1.5,西北西,25.8,87.8,0,0,0,0,0,0,994.7,1007.9
114,2020-08-24T01:53:00,1,西,1.5,西北西,25.8,86.6,0,0,0,0,0,0,994.7,1007.9
115,2020-08-24T01:54:00,1,西,1.5,西北西,25.9,86.2,0,0,0,0,0,0,994.7,1007.9
116,2020-08-24T01:55:00,1.1,西,1.6,西北西,26,85.6,0,0,0,0,0,0,994.7,1007.9
117,2020-08-24T01:56:00,1.1,西,1.6,西北西,26,85.3,0,0,0,0,0,0,994.7,1007.9
118,2020-08-24T01:57:00,1.1,西,1.6,西北西,25.8,84.7,0,0,0,0,0,0,994.7,1007.9
119,2020-08-24T01:58:00,1.1,西北西,1.6,西北西,26.1,84.9,0,0,0,0,0,0,994.7,1007.9
120,2020-08-24T01:59:00,1.2,西北西,1.6,西北西,26,84.4,0,0,0,0,0,0,994.7,1007.9
121,2020-08-24T02:00:00,1.2,西北西,1.6,西北西,25.9,84.1,0,0,0,0,0,0,994.7,1007.9
122,2020-08-24T02:01:00,1.1,西北西,1.6,西北西,25.9,84.3,0,0,0,0,0,0,994.7,1007.9
123,2020-08-24T02:02:00,1.1,西北西,1.6,西北西,25.9,84.5,0,0,0,0,0,0,994.7,1007.9
124,2020-08-24T02:03:00,1.1,西北西,1.6,西北西,25.8,84.6,0,0,0,0,0,0,994.7,1007.9
125,2020-08-24T02:04:00,1.1,西北西,1.6,西北西,25.8,84.6,0,0,0,0,0,0,994.7,1007.9
126,2020-08-24T02:05:00,1.1,西北西,1.6,西北西,25.8,84.8,0,0,0,0,0,0,994.7,1007.9
127,2020-08-24T02:06:00,1,西北西,1.6,西北西,25.7,84.8,0,0,0,0,0,0,994.7,1008
128,2020-08-24T02:07:00,1,西北西,1.6,西北西,25.8,85.1,0,0,0,0,0,0,994.7,1007.9
129,2020-08-24T02:08:00,1,西,1.6,西北西,25.7,84.8,0,0,0,0,0,0,994.7,1008
130,2020-08-24T02:09:00,1,西,1.6,西北西,25.6,85.2,0,0,0,0,0,0,994.8,1008.1
131,2020-08-24T02:10:00,1,西,1.6,西北西,25.9,86,0,0,0,0,0,0,994.8,1008
132,2020-08-24T02:11:00,1,西,1.6,西北西,25.8,85.3,0,0,0,0,0,0,994.8,1008
133,2020-08-24T02:12:00,1,西,1.6,西北西,25.7,84.8,0,0,0,0,0,0,994.7,1008
134,2020-08-24T02:13:00,1.1,西,1.6,西,25.5,85,0,0,0,0,0,0,994.8,1008.1
135,2020-08-24T02:14:00,1.1,西,1.8,西北西,25.4,85.3,0,0,0,0,0,0,994.8,1008.1
136,2020-08-24T02:15:00,1.2,西,1.9,西北西,25.4,86.1,0,0,0,0,0,0,994.7,1008
137,2020-08-24T02:16:00,1.3,西,2.3,西,25.3,86.7,0,0,0,0,0,0,994.7,1008
138,2020-08-24T02:17:00,1.4,西,2.4,西,25,86.9,0,0,0,0,0,0,994.7,1008
139,2020-08-24T02:18:00,1.5,西北西,2.4,西,24.8,87.7,0,0,0,0,0,0,994.7,1008
140,2020-08-24T02:19:00,1.6,西北西,2.4,西,24.9,88.8,0,0,0,0,0,0,994.7,1008
141,2020-08-24T02:20:00,1.7,西北西,2.4,西,24.7,89.1,0,0,0,0,0,0,994.7,1008
142,2020-08-24T02:21:00,1.8,西北西,2.4,西,24.6,89.5,0,0,0,0,0,0,994.7,1008
143,2020-08-24T02:22:00,1.9,西,2.4,西,25,90.9,0,0,0,0,0,0,994.7,1008
144,2020-08-24T02:23:00,1.9,西,2.4,西,24.9,90.3,0,0,0,0,0,0,994.7,1008
145,2020-08-24T02:24:00,1.8,西,2.4,西,25.3,90.3,0,0,0,0,0,0,994.7,1008
146,2020-08-24T02:25:00,1.7,西,2.4,西,25.5,89.3,0,0,0,0,0,0,994.7,1008
147,2020-08-24T02:26:00,1.6,西北西,2.4,西,25.5,88,0,0,0,0,0,0,994.7,1008
148,2020-08-24T02:27:00,1.5,西北西,2.3,西北西,25.4,87.2,0,0,0,0,0,0,994.7,1008
149,2020-08-24T02:28:00,1.4,西北西,2.2,西,25.6,87.2,0,0,0,0,0,0,994.7,1008
150,2020-08-24T02:29:00,1.4,西北西,2.2,西,25.6,86.8,0,0,0,0,0,0,994.8,1008.1
151,2020-08-24T02:30:00,1.3,西北西,2.1,西北西,25.6,86.4,0,0,0,0,0,0,994.8,1008.1
152,2020-08-24T02:31:00,1.1,西北西,2,西,25.7,86.2,0,0,0,0,0,0,994.8,1008.1
153,2020-08-24T02:32:00,1,西北西,1.7,西,25.5,85.8,0,0,0,0,0,0,994.8,1008.1
154,2020-08-24T02:33:00,0.9,西北西,1.7,西,25.5,86.2,0,0,0,0,0,0,994.8,1008.1
155,2020-08-24T02:34:00,0.8,北西,1.7,西,25.7,86.4,0,0,0,0,0,0,994.8,1008.1
156,2020-08-24T02:35:00,0.8,北西,1.7,西,25.8,86.1,0,0,0,0,0,0,994.8,1008
157,2020-08-24T02:36:00,0.8,北西,1.7,西,25.8,85.7,0,0,0,0,0,0,994.8,1008
158,2020-08-24T02:37:00,0.8,北北西,1.7,西,26,85.7,0,0,0,0,0,0,994.8,1008
159,2020-08-24T02:38:00,0.8,北北西,1.7,西,26,85.1,0,0,0,0,0,0,994.8,1008
160,2020-08-24T02:39:00,0.7,北,1.7,西,26.1,84.8,0,0,0,0,0,0,994.7,1007.9
161,2020-08-24T02:40:00,0.7,北,1.5,北,26.1,84.4,0,0,0,0,0,0,994.7,1007.9
162,2020-08-24T02:41:00,0.8,北北東,1.6,北北東,26.1,84.1,0,0,0,0,0,0,994.7,1007.9
163,2020-08-24T02:42:00,1,北北東,1.6,北北東,26.2,83.9,0,0,0,0,0,0,994.7,1007.9
164,2020-08-24T02:43:00,1,北北東,1.6,北北東,26.2,83.6,0,0,0,0,0,0,994.7,1007.9
165,2020-08-24T02:44:00,1,北北東,1.6,北北東,25.8,83.2,0,0,0,0,0,0,994.7,1007.9
166,2020-08-24T02:45:00,1.1,北北東,1.6,北北東,25.9,83.9,0,0,0,0,0,0,994.7,1007.9
167,2020-08-24T02:46:00,1.1,北北東,1.7,北,26.1,84.1,0,0,0,0,0,0,994.7,1007.9
168,2020-08-24T02:47:00,1.1,北北東,1.7,北,26,83.9,0,0,0,0,0,0,994.6,1007.8
169,2020-08-24T02:48:00,1,北北東,1.7,北,26,84,0,0,0,0,0,0,994.6,1007.8
170,2020-08-24T02:49:00,1,北北東,1.7,北,25.9,83.8,0,0,0,0,0,0,994.6,1007.8
171,2020-08-24T02:50:00,1,北北東,1.7,北,25.9,84,0,0,0,0,0,0,994.7,1007.9
172,2020-08-24T02:51:00,0.9,北北東,1.7,北,25.9,84.1,0,0,0,0,0,0,994.7,1007.9
173,2020-08-24T02:52:00,0.8,北北東,1.7,北,25.9,84.1,0,0,0,0,0,0,994.7,1007.9
174,2020-08-24T02:53:00,0.8,北北東,1.7,北,25.8,84.3,0,0,0,0,0,0,994.7,1007.9
175,2020-08-24T02:54:00,0.8,北北東,1.7,北,25.9,84.5,0,0,0,0,0,0,994.7,1007.9
176,2020-08-24T02:55:00,0.8,北北東,1.7,北,25.9,84.2,0,0,0,0,0,0,994.7,1007.9
177,2020-08-24T02:56:00,0.8,北北東,1.3,北北東,25.9,84,0,0,0,0,0,0,994.7,1007.9
178,2020-08-24T02:57:00,0.7,北北東,1.3,北北東,26.1,84.2,0,0,0,0,0,0,994.7,1007.9
179,2020-08-24T02:58:00,0.7,北,1.3,北北東,25.9,83.8,0,0,0,0,0,0,994.7,1007.9
180,2020-08-24T02:59:00,0.7,北,1.3,北北東,25.7,83.7,0,0,0,0,0,0,994.7,1008
181,2020-08-24T03:00:00,0.7,北,1.3,北北東,25.6,84.3,0,0,0,0,0,0,994.8,1008.1
182,2020-08-24T03:01:00,0.7,北北西,1.3,北北東,25.6,84.8,0,0,0,0,0,0,994.8,1008.1
183,2020-08-24T03:02:00,0.7,北北西,1.3,北北東,25.5,85.2,0,0,0,0,0,0,994.8,1008.1
184,2020-08-24T03:03:00,0.7,北西,1.3,北北東,25.8,85.9,0,0,0,0,0,0,994.8,1008
185,2020-08-24T03:04:00,0.6,北西,1.2,西北西,25.8,85.3,0,0,0,0,0,0,994.8,1008
186,2020-08-24T03:05:00,0.6,北西,1.2,西北西,25.9,84.9,0,0,0,0,0,0,994.8,1008
187,2020-08-24T03:06:00,0.5,北西,1.2,西北西,25.9,84.7,0,0,0,0,0,0,994.8,1008
188,2020-08-24T03:07:00,0.6,北北西,1.2,西北西,26,84.5,0,0,0,0,0,0,994.7,1007.9
189,2020-08-24T03:08:00,0.6,北北西,1.2,西北西,25.8,83.9,0,0,0,0,0,0,994.7,1007.9
190,2020-08-24T03:09:00,0.6,北,1.2,西北西,25.9,84.5,0,0,0,0,0,0,994.7,1007.9
191,2020-08-24T03:10:00,0.6,北,1.2,西北西,25.9,84.3,0,0,0,0,0,0,994.7,1007.9
192,2020-08-24T03:11:00,0.6,北北東,1.1,北北東,25.7,84,0,0,0,0,0,0,994.7,1008
193,2020-08-24T03:12:00,0.5,北北東,1.1,北北東,25.7,84.5,0,0,0,0,0,0,994.6,1007.9
194,2020-08-24T03:13:00,0.5,北東,1.1,北北東,25.6,84.8,0,0,0,0,0,0,994.6,1007.9
195,2020-08-24T03:14:00,0.5,北東,1.1,北北東,25.9,85.2,0,0,0,0,0,0,994.6,1007.8
196,2020-08-24T03:15:00,0.5,北北東,1,北東,25.9,84.7,0,0,0,0,0,0,994.7,1007.9
197,2020-08-24T03:16:00,0.5,北北東,1,北東,25.9,84.3,0,0,0,0,0,0,994.6,1007.8
198,2020-08-24T03:17:00,0.4,北北東,1,北東,25.7,83.9,0,0,0,0,0,0,994.6,1007.9
199,2020-08-24T03:18:00,0.4,北,1,北東,25.6,84.3,0,0,0,0,0,0,994.6,1007.9
200,2020-08-24T03:19:00,0.4,北,1,北東,25.4,84.8,0,0,0,0,0,0,994.6,1007.9
201,2020-08-24T03:20:00,0.4,北,1,北東,25.4,85.7,0,0,0,0,0,0,994.6,1007.9
202,2020-08-24T03:21:00,0.4,北,1,北東,25.5,86.4,0,0,0,0,0,0,994.7,1008
203,2020-08-24T03:22:00,0.3,北,0.9,北東,25.6,86.2,0,0,0,0,0,0,994.7,1008
204,2020-08-24T03:23:00,0.3,北北西,0.8,西,25.7,86,0,0,0,0,0,0,994.7,1008
205,2020-08-24T03:24:00,0.4,北北西,1.2,西北西,25.7,85.7,0,0,0,0,0,0,994.7,1008
206,2020-08-24T03:25:00,0.5,北北西,1.4,西北西,25.5,85.2,0,0,0,0,0,0,994.7,1008
207,2020-08-24T03:26:00,0.6,北西,1.4,西北西,25,85.2,0,0,0,0,0,0,994.7,1008
208,2020-08-24T03:27:00,0.7,北西,1.8,西,25.2,86.6,0,0,0,0,0,0,994.7,1008
209,2020-08-24T03:28:00,0.8,北西,1.8,西,24.8,86.8,0,0,0,0,0,0,994.7,1008
210,2020-08-24T03:29:00,0.9,西北西,1.8,西,24.4,87.3,0,0,0,0,0,0,994.7,1008
211,2020-08-24T03:30:00,1,西北西,1.8,西,24.3,88.8,0,0,0,0,0,0,994.7,1008
212,2020-08-24T03:31:00,1.1,西北西,1.8,西,24.7,90.9,0,0,0,0,0,0,994.6,1007.9
213,2020-08-24T03:32:00,1.1,西,1.8,西,25,91.7,0,0,0,0,0,0,994.7,1008
214,2020-08-24T03:33:00,1.1,西,1.8,西,25,90.1,0,0,0,0,0,0,994.6,1007.9
215,2020-08-24T03:34:00,1,西,1.8,西,25,89.4,0,0,0,0,0,0,994.6,1007.9
216,2020-08-24T03:35:00,1,西,1.8,西,25.1,89,0,0,0,0,0,0,994.6,1007.9
217,2020-08-24T03:36:00,0.9,西,1.8,西,25.3,88.8,0,0,0,0,0,0,994.6,1007.9
218,2020-08-24T03:37:00,0.9,西北西,1.8,西南西,25.3,88.2,0,0,0,0,0,0,994.6,1007.9
219,2020-08-24T03:38:00,0.8,西北西,1.8,西南西,25.2,87.4,0,0,0,0,0,0,994.6,1007.9
220,2020-08-24T03:39:00,0.7,西北西,1.7,西北西,25.1,87.3,0,0,0,0,0,0,994.6,1007.9
221,2020-08-24T03:40:00,0.6,西北西,1.5,西北西,25.2,87.4,0,0,0,0,0,0,994.6,1007.9
222,2020-08-24T03:41:00,0.6,西北西,1.1,西,25.2,87.3,0,0,0,0,0,0,994.6,1007.9
223,2020-08-24T03:42:00,0.6,西,1.1,西,25.1,87.3,0,0,0,0,0,0,994.6,1007.9
224,2020-08-24T03:43:00,0.6,西,1.1,西,25.2,87.5,0,0,0,0,0,0,994.6,1007.9
225,2020-08-24T03:44:00,0.6,西,1.1,西,25.2,87.3,0,0,0,0,0,0,994.5,1007.8
226,2020-08-24T03:45:00,0.6,西北西,1.1,西,25.1,87.1,0,0,0,0,0,0,994.5,1007.8
227,2020-08-24T03:46:00,0.5,西北西,1.1,西,25.1,87.4,0,0,0,0,0,0,994.5,1007.8
228,2020-08-24T03:47:00,0.5,西北西,1.1,西,25.2,87.7,0,0,0,0,0,0,994.5,1007.8
229,2020-08-24T03:48:00,0.4,西北西,1.1,西,25.4,87.6,0,0,0,0,0,0,994.5,1007.8
230,2020-08-24T03:49:00,0.4,北西,1.1,西,25.4,87.4,0,0,0,0,0,0,994.5,1007.8
231,2020-08-24T03:50:00,0.4,北西,1.1,西,25.4,87,0,0,0,0,0,0,994.5,1007.8
232,2020-08-24T03:51:00,0.3,北北西,0.9,北,25.3,86.5,0,0,0,0,0,0,994.5,1007.8
233,2020-08-24T03:52:00,0.3,北北西,1.3,北北東,25.3,86.8,0,0,0,0,0,0,994.5,1007.8
234,2020-08-24T03:53:00,0.3,北,1.3,北北東,25.4,87.2,0,0,0,0,0,0,994.5,1007.8
235,2020-08-24T03:54:00,0.3,北,1.3,北北東,25.5,87.1,0,0,0,0,0,0,994.5,1007.8
236,2020-08-24T03:55:00,0.3,北,1.3,北北東,25.6,86.9,0,0,0,0,0,0,994.5,1007.8
237,2020-08-24T03:56:00,0.4,北,1.3,北北東,25.4,86,0,0,0,0,0,0,994.5,1007.8
238,2020-08-24T03:57:00,0.4,北,1.3,北北東,25.5,86,0,0,0,0,0,0,994.5,1007.8
239,2020-08-24T03:58:00,0.5,北,1.3,北北東,25.3,85.9,0,0,0,0,0,0,994.5,1007.8
240,2020-08-24T03:59:00,0.5,北北東,1.3,北北東,25.5,86.2,0,0,0,0,0,0,994.5,1007.8
241,2020-08-24T04:00:00,0.5,北北東,1.3,北北東,25.6,86.2,0,0,0,0,0,0,994.5,1007.8
242,2020-08-24T04:01:00,0.5,北北東,1.3,北北東,25.6,85.7,0,0,0,0,0,0,994.6,1007.9
243,2020-08-24T04:02:00,0.5,北北東,1.2,北北東,25.6,85.7,0,0,0,0,0,0,994.6,1007.9
244,2020-08-24T04:03:00,0.5,北北東,1.2,北北東,25.6,85.7,0,0,0,0,0,0,994.6,1007.9
245,2020-08-24T04:04:00,0.6,北北東,1.3,西北西,25.2,85.3,0,0,0,0,0,0,994.6,1007.9
246,2020-08-24T04:05:00,0.6,北,1.3,西北西,25.4,86,0,0,0,0,0,0,994.6,1007.9
247,2020-08-24T04:06:00,0.7,北,1.7,西北西,25.4,86.6,0,0,0,0,0,0,994.7,1008
248,2020-08-24T04:07:00,0.8,北,1.7,西北西,25.3,86.1,0,0,0,0,0,0,994.7,1008
249,2020-08-24T04:08:00,0.8,北北西,1.7,西北西,25,86.3,0,0,0,0,0,0,994.7,1008
250,2020-08-24T04:09:00,0.8,北北西,1.7,西北西,25,87,0,0,0,0,0,0,994.7,1008
251,2020-08-24T04:10:00,0.8,北北西,1.7,西北西,25.2,87.7,0,0,0,0,0,0,994.7,1008
252,2020-08-24T04:11:00,0.8,北西,1.7,西北西,25.3,87.6,0,0,0,0,0,0,994.7,1008
253,2020-08-24T04:12:00,0.8,北西,1.7,西北西,25.4,87.3,0,0,0,0,0,0,994.7,1008
254,2020-08-24T04:13:00,0.8,北西,1.7,西北西,25.4,87,0,0,0,0,0,0,994.7,1008
255,2020-08-24T04:14:00,0.8,北西,1.7,西北西,25.3,86.7,0,0,0,0,0,0,994.7,1008
256,2020-08-24T04:15:00,0.7,北西,1.7,西北西,25.4,86.8,0,0,0,0,0,0,994.7,1008
257,2020-08-24T04:16:00,0.7,北北西,1.4,北西,25.4,86.7,0,0,0,0,0,0,994.7,1008
258,2020-08-24T04:17:00,0.6,北北西,1.4,北西,25.5,86.7,0,0,0,0,0,0,994.7,1008
259,2020-08-24T04:18:00,0.6,北北西,1.1,北北東,25.4,86.4,0,0,0,0,0,0,994.7,1008
260,2020-08-24T04:19:00,0.6,北,1.1,北北東,25.3,86.4,0,0,0,0,0,0,994.7,1008
261,2020-08-24T04:20:00,0.6,北,1.1,北北東,25.4,86.6,0,0,0,0,0,0,994.7,1008
262,2020-08-24T04:21:00,0.6,北北西,1.1,北北東,25.3,86.2,0,0,0,0,0,0,994.7,1008
263,2020-08-24T04:22:00,0.6,北,1.1,北北東,25.3,86.4,0,0,0,0,0,0,994.7,1008
264,2020-08-24T04:23:00,0.6,北,1.1,北北東,25.4,86.7,0,0,0,0,0,0,994.6,1007.9
265,2020-08-24T04:24:00,0.6,北,1.1,北北東,25.3,86.4,0,0,0,0,0,0,994.6,1007.9
266,2020-08-24T04:25:00,0.5,北,1.1,北北東,25.3,86.1,0,0,0,0,0,0,994.6,1007.9
267,2020-08-24T04:26:00,0.4,北北東,1.1,北北東,25.1,86.1,0,0,0,0,0,0,994.6,1007.9
268,2020-08-24T04:27:00,0.4,北北東,1.1,北北東,25.1,86.6,0,0,0,0,0,0,994.6,1007.9
269,2020-08-24T04:28:00,0.3,北北東,0.9,北,25.2,87.2,0,0,0,0,0,0,994.6,1007.9
270,2020-08-24T04:29:00,0.3,北北東,0.9,北東,25.2,87.1,0,0,0,0,0,0,994.6,1007.9
271,2020-08-24T04:30:00,0.3,北東,0.9,北東,25.2,87.2,0,0,0,0,0,0,994.6,1007.9
272,2020-08-24T04:31:00,0.3,北東,1,北北東,25.1,87,0,0,0,0,0,0,994.6,1007.9
273,2020-08-24T04:32:00,0.4,北東,1.1,北北東,25.1,87.4,0,0,0,0,0,0,994.6,1007.9
274,2020-08-24T04:33:00,0.4,北東,1.1,北北東,25.1,87.7,0,0,0,0,0,0,994.6,1007.9
275,2020-08-24T04:34:00,0.4,北北東,1.1,北北東,25.2,87.9,0,0,0,0,0,0,994.6,1007.9
276,2020-08-24T04:35:00,0.4,北北東,1.1,北北東,25.4,87.7,0,0,0,0,0,0,994.6,1007.9
277,2020-08-24T04:36:00,0.4,北北東,1.1,北北東,25.4,87.1,0,0,0,0,0,0,994.5,1007.8
278,2020-08-24T04:37:00,0.5,北,1.2,北西,25.4,86.8,0,0,0,0,0,0,994.5,1007.8
279,2020-08-24T04:38:00,0.6,北,1.3,西,25.4,86.5,0,0,0,0,0,0,994.5,1007.8
280,2020-08-24T04:39:00,0.6,北北西,1.3,西,25.5,86.3,0,0,0,0,0,0,994.4,1007.7
281,2020-08-24T04:40:00,0.7,北北西,1.3,西,25.3,85.9,0,0,0,0,0,0,994.4,1007.7
282,2020-08-24T04:41:00,0.7,北西,1.5,西北西,25.2,86.2,0,0,0,0,0,0,994.5,1007.8
283,2020-08-24T04:42:00,0.8,北西,1.5,西北西,25,86.4,0,0,0,0,0,0,994.4,1007.7
284,2020-08-24T04:43:00,0.8,北西,1.5,西北西,25,87,0,0,0,0,0,0,994.4,1007.7
285,2020-08-24T04:44:00,0.9,西北西,1.5,西北西,25.1,87.5,0,0,0,0,0,0,994.4,1007.7
286,2020-08-24T04:45:00,1,西北西,1.5,西北西,25.2,87.6,0,0,0,0,0,0,994.4,1007.7
287,2020-08-24T04:46:00,1,西北西,1.5,西北西,25.1,87.2,0,0,0,0,0,0,994.4,1007.7
288,2020-08-24T04:47:00,1,西北西,1.5,西北西,25,87.2,0,0,0,0,0,0,994.3,1007.6
289,2020-08-24T04:48:00,1,西北西,1.5,西北西,25.1,87.6,0,0,0,0,0,0,994.3,1007.6
290,2020-08-24T04:49:00,1,西北西,1.5,西北西,25,87.5,0,0,0,0,0,0,994.3,1007.6
291,2020-08-24T04:50:00,1,西北西,1.5,西北西,25,87.8,0,0,0,0,0,0,994.4,1007.7
292,2020-08-24T04:51:00,1,西北西,1.5,西北西,25,88,0,0,0,0,0,0,994.4,1007.7
293,2020-08-24T04:52:00,1,西北西,1.5,西北西,25.2,88.2,0,0,0,0,0,0,994.4,1007.7
294,2020-08-24T04:53:00,0.9,西北西,1.5,西北西,24.9,87.6,0,0,0,0,0,0,994.4,1007.7
295,2020-08-24T04:54:00,0.9,西北西,1.5,西北西,25,87.7,0,0,0,0,0,0,994.3,1007.6
296,2020-08-24T04:55:00,0.9,西北西,1.5,西北西,25.3,88.3,0,0,0,0,0,0,994.3,1007.6
297,2020-08-24T04:56:00,0.9,西北西,1.5,西北西,25.1,87.5,0,0,0,0,0,0,994.3,1007.6
298,2020-08-24T04:57:00,0.9,西北西,1.5,西北西,25,87.2,0,0,0,0,0,0,994.3,1007.6
299,2020-08-24T04:58:00,0.8,西北西,1.5,西北西,24.9,87.6,0,0,0,0,0,0,994.3,1007.6
300,2020-08-24T04:59:00,0.8,西北西,1.5,西北西,24.9,87.9,0,0,0,0,0,0,994.3,1007.6
301,2020-08-24T05:00:00,0.7,西北西,1.5,西北西,25,88.3,0,0,0,0,0,0,994.3,1007.6
302,2020-08-24T05:01:00,0.7,西北西,1.3,北西,25.1,88.3,0,0,0,0,0,0,994.3,1007.6
303,2020-08-24T05:02:00,0.6,西北西,1.2,西北西,25.1,88.1,0,0,0,0,0,0,994.3,1007.6
304,2020-08-24T05:03:00,0.6,西北西,1.2,西北西,25.3,87.9,0,0,0,0,0,0,994.3,1007.6
305,2020-08-24T05:04:00,0.6,北西,1.2,西北西,25,87.1,0,0,0,0,0,0,994.3,1007.6
306,2020-08-24T05:05:00,0.6,北西,1.5,西,25.1,87.6,0,0,0,0,0,0,994.4,1007.7
307,2020-08-24T05:06:00,0.7,北西,1.5,西,25.1,87.3,0,0,0,0,0,0,994.4,1007.7
308,2020-08-24T05:07:00,0.7,北西,1.5,西,25,87,0,0,0,0,0,0,994.4,1007.7
309,2020-08-24T05:08:00,0.8,西北西,1.5,西,25,87.1,0,0,0,0,0,0,994.5,1007.8
310,2020-08-24T05:09:00,0.9,西北西,1.8,西北西,25,87.2,0,0,0,0,0,0,994.4,1007.7
311,2020-08-24T05:10:00,1,西北西,1.9,西北西,25.1,87.3,0,0,0,0,0,0,994.5,1007.8
312,2020-08-24T05:11:00,1.2,西北西,2.2,西北西,24.9,87,0,0,0,0,0,0,994.5,1007.8
313,2020-08-24T05:12:00,1.3,西北西,2.2,西北西,25,87,0,0,0,0,0,0,994.5,1007.8
314,2020-08-24T05:13:00,1.4,西北西,2.2,西北西,25.1,87.1,0,0,0,0,0,0,994.5,1007.8
315,2020-08-24T05:14:00,1.4,西北西,2.2,西北西,25,87.1,0,0,0,0,0,0,994.5,1007.8
316,2020-08-24T05:15:00,1.5,西北西,2.2,西北西,25.1,86.9,0,0,0,0,0,0,994.5,1007.8
317,2020-08-24T05:16:00,1.5,西北西,2.2,西北西,25,86.7,0,0,0,0,0,0,994.5,1007.8
318,2020-08-24T05:17:00,1.6,西北西,2.2,西北西,24.8,86.3,0,0,0,0,0,0,994.5,1007.8
319,2020-08-24T05:18:00,1.6,西北西,2.2,西北西,25,87.6,0,0,0,0,0,0,994.5,1007.8
320,2020-08-24T05:19:00,1.5,西北西,2.2,西北西,25.1,87.4,0,0,0,0,0,0,994.5,1007.8
321,2020-08-24T05:20:00,1.5,西北西,2.2,西北西,25,86.8,0,0,0,0,0,0,994.5,1007.8
322,2020-08-24T05:21:00,1.4,西,2.2,西北西,24.8,86.5,0,0,0,0,0,0,994.6,1007.9
323,2020-08-24T05:22:00,1.3,西,2.2,西北西,24.8,86.8,0,0,0,0,0,0,994.6,1007.9
324,2020-08-24T05:23:00,1.2,西,2.1,西,24.7,87.3,0,0,0,0,0,0,994.6,1007.9
325,2020-08-24T05:24:00,1.1,西,2.1,西,24.6,87.5,0,0,0,0,0,0,994.6,1007.9
326,2020-08-24T05:25:00,0.9,西,2,西北西,24.7,88.3,0,0,0,0,0,0,994.6,1007.9
327,2020-08-24T05:26:00,0.8,西北西,1.9,西北西,24.6,88.1,0,0,0,0,0,0,994.6,1007.9
328,2020-08-24T05:27:00,0.7,西北西,1.8,西北西,24.7,88.7,0,0,0,0,0,0,994.7,1008
329,2020-08-24T05:28:00,0.7,西北西,1.3,西南西,24.8,88.8,0,0,0,0,0,0,994.7,1008
330,2020-08-24T05:29:00,0.6,西北西,1.3,西南西,24.8,88.5,0,0,0,0,0,0,994.6,1007.9